AirNav   Everest Fuels
 
 567 users online  

KPCM Plant City Airport
Plant City, Florida, USA

GOING TO PLANT CITY?


FAA INFORMATION EFFECTIVE 25 APRIL 2019

Location

FAA Identifier: PCM
Lat/Long: 28-00-00.6000N / 082-09-47.9000W
28-00.010000N / 082-09.798333W
28.0001667 / -82.1633056
(estimated)
Elevation: 152.7 ft. / 46.5 m (surveyed)
Variation: 05W (2010)
From city: 2 miles SW of PLANT CITY, FL
Time zone: UTC -4 (UTC -5 during Standard Time)
Zip code: 33567

Airport Operations

Airport use: Open to the public
Activation date: 03/1948
Control tower: no
ARTCC: MIAMI CENTER
FSS: SAINT PETERSBURG FLIGHT SERVICE STATION
NOTAMs facility: PCM (NOTAM-D service available)
Attendance: 0700-1900
Wind indicator: lighted
Segmented circle: yes
Lights: ACTVT MIRL RY 10/28, PAPI RYS 10 & 28 AND REILS RYS 10 & 28 - CTAF.
Beacon: white-green (lighted land airport)
Operates sunset to sunrise.

Airport Communications

CTAF/UNICOM: 123.05
WX AWOS-3: 120.025 (813-764-8259)
TAMPA APPROACH: 120.65 119.9
TAMPA DEPARTURE: 120.65 119.9
WX AWOS-3PT at LAL (8 nm E): 118.025 (863-834-2030)
WX AWOS-3 at VDF (10 nm W): 121.125 (813-630-0924)
WX AWOS-3PT at ZPH (14 nm N): 118.975 (813-780-0031)
WX AWOS-3 at TPF (16 nm W): 118.925 (813-251-6824)
WX ASOS at TPA (20 nm W): PHONE 813-873-7228

Nearby radio navigation aids

VOR radial/distance  VOR name  Freq  Var
LALr275/8.0LAKELAND VORTAC116.0001E
PIEr084/28.2ST PETERSBURG VORTAC116.4005W

Airport Services

Fuel available: 100LL JET-A
Parking: hangars and tiedowns
Airframe service: MAJOR
Powerplant service: MAJOR
Bottled oxygen: NONE
Bulk oxygen: NONE

Runway Information

Runway 10/28

Dimensions: 3950 x 75 ft. / 1204 x 23 m
Surface: asphalt, in good condition
Weight bearing capacity: 
PCN 7 /F/C/X/T
Single wheel: 21.0
Runway edge lights: medium intensity
Gradient: WEST.
RUNWAY 10  RUNWAY 28
Latitude: 28-00.033208N27-59.985390N
Longitude: 082-10.165047W082-09.432610W
Elevation: 151.5 ft.137.9 ft.
Traffic pattern: leftleft
Runway heading: 099 magnetic, 094 true279 magnetic, 274 true
Displaced threshold: 200 ft.no
Markings: nonprecision, in good conditionnonprecision, in good condition
Visual slope indicator: 2-light PAPI on left (3.00 degrees glide path)2-light PAPI on left (3.00 degrees glide path)
Runway end identifier lights: yesyes
Touchdown point: yes, no lightsyes, no lights
Obstructions: 15 ft. road, 281 ft. from runway, 5:1 slope to clear
RWY 10 APCH RATIO 30:1 TO DSPLCD THR.
29 ft. trees, 545 ft. from runway, 120 ft. left of centerline, 12:1 slope to clear

Airport Ownership and Management from official FAA records

Ownership: Publicly-owned
Owner: HILLSBOROUGH COUNTY AVIATION AUTH.
P.O. BOX 22287
TAMPA, FL 33622
Phone (813) 870-8711
Manager: BRETT FAY
4007 AIRPORT RD
PLANT CITY, FL 33622
Phone (813) 870-8735

Airport Operational Statistics

Aircraft based on the field: 122
Single engine airplanes: 103
Multi engine airplanes: 14
Helicopters: 5
    
Aircraft operations: avg 131/day *
77% local general aviation
23% transient general aviation
<1% air taxi
<1% military
* for 12-month period ending 12 December 2017

Additional Remarks

3 TV TWRS 1099' & 2 AT 1549' MSL 12 NM SSW.
GCO 121.725 TAMPA CLNC DEL, FOR PCM.
NOISE ABATEMENT PROC IN EFFECT FOR RY 10 DEP. NO TURNS BLO 500 FT AGL UNLESS DIRECTED BY ATC.
(CONTACT TITLE) AIRPORT PHYSICAL ADDRESS: PLANT CITY AIRPORT SERVICES, 4007 AIRPORT RD, PLANT CITY, FL 33563

Instrument Procedures

NOTE: All procedures below are presented as PDF files. If you need a reader for these files, you should download the free Adobe Reader.

NOT FOR NAVIGATION. Please procure official charts for flight.
FAA instrument procedures published for use from 25 April 2019 at 0901Z to 23 May 2019 at 0900Z.

 
IAPs - Instrument Approach Procedures
RNAV (GPS) RWY 10 **CHANGED**   download (217KB)
RNAV (GPS) RWY 28 **CHANGED**   download (214KB)
VOR RWY 28 **CHANGED**   download (162KB)
NOTE: Special Alternate Minimums apply   download
NOTE: Special Take-Off Minimums/Departure Procedures apply   download (162KB)

Other nearby airports with instrument procedures:

KLAL - Lakeland Linder International Airport (8 nm E)
KVDF - Tampa Executive Airport (10 nm W)
KZPH - Zephyrhills Municipal Airport (14 nm N)
KTPF - Peter O Knight Airport (16 nm W)
KTPA - Tampa International Airport (20 nm W)
 
Loc | Ops | Rwys | IFR | FBO | Links
Com | Nav | Svcs | Stats | Notes


 
Area around KPCM (Plant City Airport)
 
Road maps at: MapQuest Bing Google
 
Aerial photo
WARNING: Photo may not be current or correct
Aerial photo of KPCM (Plant City Airport)
Photo courtesy of PhotosFromTheAir.com
Photo taken 27-Feb-2012
looking west.

Do you have a better or more recent aerial photo of Plant City Airport that you would like to share? If so, please send us your photo.

 
Sectional chart

 
Airport distance calculator
Flying to Plant City Airport? Find the distance to fly.

From to KPCM

Sunrise and sunset
Times for 25-Apr-2019
 Local
(UTC-4)
 Zulu
(UTC)
Morning civil twilight06:3010:30
Sunrise06:5510:55
Sunset19:5823:58
Evening civil twilight20:2300:23

Current date and time
Zulu (UTC)  25-Apr-2019 05:31:52
Local (UTC-4)  25-Apr-2019 01:31:52
 
METAR
KPCM 250515Z AUTO 13003KT 10SM CLR 21/15 A3003 RMK AO2
KLAL 
8nm E 
250515Z AUTO 15004KT 10SM CLR 20/15 A3001 RMK AO2 PNO
KVDF 
10nm W 
250515Z AUTO 00000KT 10SM CLR 18/17 A3002 RMK AO2
KTPF 
16nm W 
250515Z AUTO 00000KT 10SM SCT080 OVC100 22/20 A3001 RMK AO2
KTPA 
20nm W 
250453Z 00000KT 10SM BKN250 22/19 A3001 RMK AO2 SLP162 T02220189 402940039 $
TAF
KLAL 
8nm E 
241720Z 2418/2518 VRB04KT P6SM FEW250 FM242100 12005KT P6SM FEW060 SCT250 FM250200 VRB03KT P6SM BKN250 FM251400 19008KT P6SM SCT030 BKN250
KTPA 
20nm W 
250306Z 2503/2606 VRB03KT P6SM BKN250 FM251400 18007KT P6SM SCT030 BKN250 FM251800 23009KT P6SM SCT045 SCT150 BKN250 FM252100 30008KT P6SM FEW060 SCT250
NOTAMs
Click for the latest NOTAMs
NOTAMs are issued by the DoD/FAA and will open in a separate window not controlled by AirNav.

 

 
 

FBO, Fuel Providers, and Aircraft Ground Support

  
 Business Name 
 
 Contact 
 
 Services / Description 
 
Fuel Prices
 
Comments
  
 Atlas Aviation
813-752-4710
[web site]
[email]

Follow us on twitter
Aviation fuel, Aircraft parking (ramp or tiedown), Hangars, Hangar leasing / sales, Passenger terminal and lounge, Flight training, Aircraft rental, ...
 
Courtesy car  
 
More info about Atlas Aviation
Shell
100LL Jet A
FS $5.05 $4.40 
 Updated 27-Mar-2019
 
   1 read write
FS=Full service
Update Fuel Prices
 

Would you like to see your business listed on this page?

 If your business provides an interesting product or service to pilots, flight crews, aircraft, or users of the Plant City Airport, you should consider listing it here.  To start the listing process, click on the button below
 
Add a business
 

Other Pages about Plant City Airport

Update a link
 
Copyright © AirNav, LLC. All rights reserved. Privacy Policy  Contact